User: anonymous   Login
Location: NJAA Observatory
(40.6819°N, 74.8979°W)
Time: 16:36:53
(UTC-04:00)
Language:

Cosmos 2237 Rocket - Orbit

View from above orbital plane
View from above orbital plane
View from above satellite
View from above satellite

Ground track
Ground track

The orbit data is extracted from the following two-line orbital elements,

1 22566U 93016B   16241.17438896 -.00000055  00000-0 -39209-5 0  9990
2 22566  71.0097 321.9708 0011922 228.6526 131.3572 14.14933240209827
Epoch (UTC): 28 August 2016 04:11:07
Eccentricity: 0.0011922
inclination: 71.0097°
perigee height: 834 km
apogee height: 851 km
right ascension of ascending node: 321.9708°
argument of perigee: 228.6526°
revolutions per day: 14.14933240
mean anomaly at epoch: 131.3572°
orbit number at epoch: 20982

The dashed part of the orbit path shows where the satellite is in the earth's shadow,  

DLR